BANGABANDHUSAT-1 (43463 NORAD) Tracking and Keplerian Element Data

This shows tracking and keplerian element data for the satellite.

Feedback or suggestion? Click here.




ElementValue
Catalog43463
NameBANGABANDHUSAT-1
Epoch Orbit351
Epoch Day111.90594777
Epoch Year2019
RAAN272.756
Inclination0.0156
Eccentricity0.000287
Argument of Perigee127.6493
Mean Anonmoly254.5087
Mean Motion1.00271281
Decay Rate-3.8E-06
L11 43463U 18044A 19111.90594777 -.00000380 00000-0 00000-0 0 9990
L22 43463 0.0156 272.7560 0002870 127.6493 254.5087 1.00271281 3514

Live tracking and technical data element details for BANGABANDHUSAT-1 (NORAD 43463). BANGABANDHUSAT-1 can be tracked NOW for your location showing map with azimuth and elevation plus other details from your city location.

Track the satellite on the map from your city or location and see movement details for azimuth, elevation, latitude, longitude, range, height, and movement on the map or in text.







IsCatalogInMostPopularTable: catalog: 43463, numindb: 161
Update: records affected: 1



GetName: 43463 BANGABANDHUSAT-1

Hit Count: updated at: Tue, 23 Apr 2019 06:28:31 GMT